owner,sensor,date,latitude,longitude,vertical_datum,mass_concentration_of_oxygen_in_sea_water,qcFlag 
SCCF RECON,ioos:station:SCCF:13:1,2011-09-01T00:00:00Z,26.5255,-82.0032,2.38,3.17,1111122 
SCCF RECON,ioos:station:SCCF:13:1,2011-09-01T01:00:00Z,26.5255,-82.0032,2.32,3.52,1111122 
SCCF RECON,ioos:station:SCCF:13:1,2011-09-01T02:00:00Z,26.5255,-82.0032,2.26,3.49,1111122 
SCCF RECON,ioos:station:SCCF:13:1,2011-09-01T03:00:00Z,26.5255,-82.0032,2.238,3.55,1111122 
SCCF RECON,ioos:station:SCCF:13:1,2011-09-01T04:00:00Z,26.5255,-82.0032,2.313,3.39,1111122 
SCCF RECON,ioos:station:SCCF:13:1,2011-09-01T05:00:00Z,26.5255,-82.0032,2.48,2.91,1111122 
SCCF RECON,ioos:station:SCCF:13:1,2011-09-01T06:00:00Z,26.5255,-82.0032,2.58,2.96,1111122 
SCCF RECON,ioos:station:SCCF:13:1,2011-09-01T07:00:00Z,26.5255,-82.0032,2.65,3.2,1111122 
SCCF RECON,ioos:station:SCCF:13:1,2011-09-01T08:00:00Z,26.5255,-82.0032,2.68,3.44,1111122 
SCCF RECON,ioos:station:SCCF:13:1,2011-09-01T09:00:00Z,26.5255,-82.0032,2.68,3.43,1111122 
SCCF RECON,ioos:station:SCCF:13:1,2011-09-01T10:00:00Z,26.5255,-82.0032,2.6,3.11,1111122 
SCCF RECON,ioos:station:SCCF:13:1,2011-09-01T11:00:00Z,26.5255,-82.0032,2.48,3.1,1111122 
SCCF RECON,ioos:station:SCCF:13:1,2011-09-01T12:00:00Z,26.5255,-82.0032,2.36,2.91,1111122 
SCCF RECON,ioos:station:SCCF:13:1,2011-09-01T13:00:00Z,26.5255,-82.0032,2.28,3.15,1111122 
SCCF RECON,ioos:station:SCCF:13:1,2011-09-01T14:00:00Z,26.5255,-82.0032,2.21,3.19,1111122 
SCCF RECON,ioos:station:SCCF:13:1,2011-09-01T16:00:00Z,26.5255,-82.0032,2.19,3.68,1111122 
SCCF RECON,ioos:station:SCCF:13:1,2011-09-01T17:00:00Z,26.5255,-82.0032,2.31,3.89,1111122 
SCCF RECON,ioos:station:SCCF:13:1,2011-09-01T18:00:00Z,26.5255,-82.0032,2.42,3.44,1111122 
SCCF RECON,ioos:station:SCCF:13:1,2011-09-01T19:00:00Z,26.5255,-82.0032,2.48,3.48,1111122 
SCCF RECON,ioos:station:SCCF:13:1,2011-09-01T20:00:00Z,26.5255,-82.0032,2.54,3.42,1111122 
SCCF RECON,ioos:station:SCCF:13:1,2011-09-01T21:00:00Z,26.5255,-82.0032,2.59,4.16,1111122 
SCCF RECON,ioos:station:SCCF:13:1,2011-09-01T22:00:00Z,26.5255,-82.0032,2.59,4.36,1111122 
SCCF RECON,ioos:station:SCCF:13:1,2011-09-01T23:00:00Z,26.5255,-82.0032,2.583,4.44,1111122 
SCCF RECON,ioos:station:SCCF:13:1,2011-09-02T00:00:00Z,26.5255,-82.0032,2.47,4.42,1111122 
SCCF RECON,ioos:station:SCCF:13:1,2011-09-02T01:00:00Z,26.5255,-82.0032,2.38,3.75,1111122 
SCCF RECON,ioos:station:SCCF:13:1,2011-09-02T02:00:00Z,26.5255,-82.0032,2.34,4.14,1111122 
SCCF RECON,ioos:station:SCCF:13:1,2011-09-02T03:00:00Z,26.5255,-82.0032,2.308,4.21,1111122 
SCCF RECON,ioos:station:SCCF:13:1,2011-09-02T04:00:00Z,26.5255,-82.0032,2.33,4.32,1111122 
SCCF RECON,ioos:station:SCCF:13:1,2011-09-02T05:00:00Z,26.5255,-82.0032,2.464,-9999.0,1111122 
SCCF RECON,ioos:station:SCCF:13:1,2011-09-02T06:00:00Z,26.5255,-82.0032,2.59,-9999.0,1111122 
SCCF RECON,ioos:station:SCCF:13:1,2011-09-02T07:00:00Z,26.5255,-82.0032,2.669,-9999.0,1111122 
SCCF RECON,ioos:station:SCCF:13:1,2011-09-02T08:00:00Z,26.5255,-82.0032,2.71,-9999.0,1111122 
SCCF RECON,ioos:station:SCCF:13:1,2011-09-02T09:00:00Z,26.5255,-82.0032,2.72,-9999.0,1111122 
SCCF RECON,ioos:station:SCCF:13:1,2011-09-02T10:00:00Z,26.5255,-82.0032,2.71,-9999.0,1111122 
SCCF RECON,ioos:station:SCCF:13:1,2011-09-02T11:00:00Z,26.5255,-82.0032,2.61,-9999.0,1111122 
SCCF RECON,ioos:station:SCCF:13:1,2011-09-02T12:00:00Z,26.5255,-82.0032,2.47,-9999.0,1111122 
SCCF RECON,ioos:station:SCCF:13:1,2011-09-02T13:00:00Z,26.5255,-82.0032,2.38,-9999.0,1111122 
SCCF RECON,ioos:station:SCCF:13:1,2011-09-02T14:00:00Z,26.5255,-82.0032,2.3,-9999.0,1111122 
SCCF RECON,ioos:station:SCCF:13:1,2011-09-02T15:00:00Z,26.5255,-82.0032,2.217,-9999.0,1111122 
SCCF RECON,ioos:station:SCCF:13:1,2011-09-02T16:00:00Z,26.5255,-82.0032,2.16,-9999.0,1111122 
SCCF RECON,ioos:station:SCCF:13:1,2011-09-02T17:00:00Z,26.5255,-82.0032,2.2,-9999.0,1111122 
SCCF RECON,ioos:station:SCCF:13:1,2011-09-02T18:00:00Z,26.5255,-82.0032,2.346,-9999.0,1111122 
SCCF RECON,ioos:station:SCCF:13:1,2011-09-02T19:00:00Z,26.5255,-82.0032,2.428,-9999.0,1111122 
SCCF RECON,ioos:station:SCCF:13:1,2011-09-02T20:00:00Z,26.5255,-82.0032,2.47,-9999.0,1111122 
SCCF RECON,ioos:station:SCCF:13:1,2011-09-02T21:00:00Z,26.5255,-82.0032,2.516,-9999.0,1111122 
SCCF RECON,ioos:station:SCCF:13:1,2011-09-02T22:00:00Z,26.5255,-82.0032,2.57,-9999.0,1111122 
SCCF RECON,ioos:station:SCCF:13:1,2011-09-02T23:00:00Z,26.5255,-82.0032,2.579,-9999.0,1111122 
SCCF RECON,ioos:station:SCCF:13:1,2011-09-03T00:00:00Z,26.5255,-82.0032,2.56,-9999.0,1111122 
SCCF RECON,ioos:station:SCCF:13:1,2011-09-03T01:00:00Z,26.5255,-82.0032,2.51,-9999.0,1111122 
SCCF RECON,ioos:station:SCCF:13:1,2011-09-03T02:00:00Z,26.5255,-82.0032,2.51,-9999.0,1111122 
SCCF RECON,ioos:station:SCCF:13:1,2011-09-03T03:00:00Z,26.5255,-82.0032,2.45,-9999.0,1111122 
SCCF RECON,ioos:station:SCCF:13:1,2011-09-03T04:00:00Z,26.5255,-82.0032,2.44,-9999.0,1111122 
SCCF RECON,ioos:station:SCCF:13:1,2011-09-03T05:00:00Z,26.5255,-82.0032,2.505,-9999.0,1111122 
SCCF RECON,ioos:station:SCCF:13:1,2011-09-03T06:00:00Z,26.5255,-82.0032,2.61,-9999.0,1111122 
SCCF RECON,ioos:station:SCCF:13:1,2011-09-03T07:00:00Z,26.5255,-82.0032,2.68,-9999.0,1111122 
SCCF RECON,ioos:station:SCCF:13:1,2011-09-03T08:00:00Z,26.5255,-82.0032,2.72,-9999.0,1111122 
SCCF RECON,ioos:station:SCCF:13:1,2011-09-03T09:00:00Z,26.5255,-82.0032,2.72,-9999.0,1111122 
SCCF RECON,ioos:station:SCCF:13:1,2011-09-03T10:00:00Z,26.5255,-82.0032,2.72,-9999.0,1111122 
SCCF RECON,ioos:station:SCCF:13:1,2011-09-03T11:00:00Z,26.5255,-82.0032,2.69,-9999.0,1111122 
SCCF RECON,ioos:station:SCCF:13:1,2011-09-03T12:00:00Z,26.5255,-82.0032,2.58,-9999.0,1111122 
SCCF RECON,ioos:station:SCCF:13:1,2011-09-03T13:00:00Z,26.5255,-82.0032,2.48,-9999.0,1111122 
SCCF RECON,ioos:station:SCCF:13:1,2011-09-03T14:00:00Z,26.5255,-82.0032,2.4,-9999.0,1111122 
SCCF RECON,ioos:station:SCCF:13:1,2011-09-03T15:00:00Z,26.5255,-82.0032,2.3,-9999.0,1111122 
SCCF RECON,ioos:station:SCCF:13:1,2011-09-03T16:00:00Z,26.5255,-82.0032,2.21,-9999.0,1111122 
SCCF RECON,ioos:station:SCCF:13:1,2011-09-03T17:00:00Z,26.5255,-82.0032,2.16,-9999.0,1111122 
SCCF RECON,ioos:station:SCCF:13:1,2011-09-03T18:00:00Z,26.5255,-82.0032,2.2,-9999.0,1111122 
SCCF RECON,ioos:station:SCCF:13:1,2011-09-03T19:00:00Z,26.5255,-82.0032,2.27,-9999.0,1111122 
SCCF RECON,ioos:station:SCCF:13:1,2011-09-03T20:00:00Z,26.5255,-82.0032,2.343,-9999.0,1111122 
SCCF RECON,ioos:station:SCCF:13:1,2011-09-03T21:00:00Z,26.5255,-82.0032,2.4,-9999.0,1111122 
SCCF RECON,ioos:station:SCCF:13:1,2011-09-03T22:00:00Z,26.5255,-82.0032,2.452,-9999.0,1111122 
SCCF RECON,ioos:station:SCCF:13:1,2011-09-03T23:00:00Z,26.5255,-82.0032,2.48,-9999.0,1111122 
SCCF RECON,ioos:station:SCCF:13:1,2011-09-04T00:00:00Z,26.5255,-82.0032,2.49,-9999.0,1111122 
SCCF RECON,ioos:station:SCCF:13:1,2011-09-04T01:00:00Z,26.5255,-82.0032,2.48,-9999.0,1111122 
SCCF RECON,ioos:station:SCCF:13:1,2011-09-04T02:00:00Z,26.5255,-82.0032,2.48,-9999.0,1111122 
SCCF RECON,ioos:station:SCCF:13:1,2011-09-04T03:00:00Z,26.5255,-82.0032,2.478,-9999.0,1111122 
SCCF RECON,ioos:station:SCCF:13:1,2011-09-04T04:00:00Z,26.5255,-82.0032,2.45,-9999.0,1111122 
SCCF RECON,ioos:station:SCCF:13:1,2011-09-04T05:00:00Z,26.5255,-82.0032,2.46,-9999.0,1111122 
SCCF RECON,ioos:station:SCCF:13:1,2011-09-04T06:00:00Z,26.5255,-82.0032,2.519,-9999.0,1111122 
SCCF RECON,ioos:station:SCCF:13:1,2011-09-04T07:00:00Z,26.5255,-82.0032,2.6,-9999.0,1111122 
SCCF RECON,ioos:station:SCCF:13:1,2011-09-04T08:00:00Z,26.5255,-82.0032,2.67,-9999.0,1111122 
SCCF RECON,ioos:station:SCCF:13:1,2011-09-04T09:00:00Z,26.5255,-82.0032,2.71,-9999.0,1111122 
SCCF RECON,ioos:station:SCCF:13:1,2011-09-04T10:00:00Z,26.5255,-82.0032,2.75,-9999.0,1111122 
SCCF RECON,ioos:station:SCCF:13:1,2011-09-04T11:00:00Z,26.5255,-82.0032,2.788,-9999.0,1111122 
SCCF RECON,ioos:station:SCCF:13:1,2011-09-04T12:00:00Z,26.5255,-82.0032,2.76,-9999.0,1111122 
SCCF RECON,ioos:station:SCCF:13:1,2011-09-04T13:00:00Z,26.5255,-82.0032,2.69,-9999.0,1111122 
SCCF RECON,ioos:station:SCCF:13:1,2011-09-04T14:00:00Z,26.5255,-82.0032,2.58,-9999.0,1111122 
SCCF RECON,ioos:station:SCCF:13:1,2011-09-04T15:00:00Z,26.5255,-82.0032,2.472,-9999.0,1111122 
SCCF RECON,ioos:station:SCCF:13:1,2011-09-04T16:00:00Z,26.5255,-82.0032,2.39,-9999.0,1111122 
SCCF RECON,ioos:station:SCCF:13:1,2011-09-04T17:00:00Z,26.5255,-82.0032,2.305,-9999.0,1111122 
SCCF RECON,ioos:station:SCCF:13:1,2011-09-04T18:00:00Z,26.5255,-82.0032,2.26,-9999.0,1111122 
SCCF RECON,ioos:station:SCCF:13:1,2011-09-04T19:00:00Z,26.5255,-82.0032,2.283,-9999.0,1111122 
SCCF RECON,ioos:station:SCCF:13:1,2011-09-04T20:00:00Z,26.5255,-82.0032,2.36,-9999.0,1111122 
SCCF RECON,ioos:station:SCCF:13:1,2011-09-04T21:00:00Z,26.5255,-82.0032,2.408,-9999.0,1111122 
SCCF RECON,ioos:station:SCCF:13:1,2011-09-04T22:00:00Z,26.5255,-82.0032,2.45,-9999.0,1111122 
SCCF RECON,ioos:station:SCCF:13:1,2011-09-04T23:00:00Z,26.5255,-82.0032,2.49,-9999.0,1111122 
SCCF RECON,ioos:station:SCCF:13:1,2011-09-05T00:00:00Z,26.5255,-82.0032,2.53,-9999.0,1111122 
SCCF RECON,ioos:station:SCCF:13:1,2011-09-05T01:00:00Z,26.5255,-82.0032,2.544,-9999.0,1111122 
SCCF RECON,ioos:station:SCCF:13:1,2011-09-05T02:00:00Z,26.5255,-82.0032,2.58,-9999.0,1111122 
SCCF RECON,ioos:station:SCCF:13:1,2011-09-05T03:00:00Z,26.5255,-82.0032,2.57,-9999.0,1111122 
SCCF RECON,ioos:station:SCCF:13:1,2011-09-05T04:00:00Z,26.5255,-82.0032,2.58,-9999.0,1111122 
SCCF RECON,ioos:station:SCCF:13:1,2011-09-05T05:00:00Z,26.5255,-82.0032,2.59,-9999.0,1111122 
SCCF RECON,ioos:station:SCCF:13:1,2011-09-05T06:00:00Z,26.5255,-82.0032,2.57,-9999.0,1111122 
SCCF RECON,ioos:station:SCCF:13:1,2011-09-05T07:00:00Z,26.5255,-82.0032,2.57,-9999.0,1111122 
SCCF RECON,ioos:station:SCCF:13:1,2011-09-05T08:00:00Z,26.5255,-82.0032,2.639,-9999.0,1111122 
SCCF RECON,ioos:station:SCCF:13:1,2011-09-05T09:00:00Z,26.5255,-82.0032,2.71,-9999.0,1111122 
SCCF RECON,ioos:station:SCCF:13:1,2011-09-05T10:00:00Z,26.5255,-82.0032,2.759,-9999.0,1111122 
SCCF RECON,ioos:station:SCCF:13:1,2011-09-05T11:00:00Z,26.5255,-82.0032,2.79,-9999.0,1111122 
SCCF RECON,ioos:station:SCCF:13:1,2011-09-05T12:00:00Z,26.5255,-82.0032,2.815,-9999.0,1111122 
SCCF RECON,ioos:station:SCCF:13:1,2011-09-05T13:00:00Z,26.5255,-82.0032,2.81,-9999.0,1111122 
SCCF RECON,ioos:station:SCCF:13:1,2011-09-05T14:00:00Z,26.5255,-82.0032,2.75,-9999.0,1111122 
SCCF RECON,ioos:station:SCCF:13:1,2011-09-05T15:00:00Z,26.5255,-82.0032,2.653,-9999.0,1111122 
SCCF RECON,ioos:station:SCCF:13:1,2011-09-05T16:00:00Z,26.5255,-82.0032,2.56,-9999.0,1111122 
SCCF RECON,ioos:station:SCCF:13:1,2011-09-05T17:00:00Z,26.5255,-82.0032,2.463,-9999.0,1111122 
SCCF RECON,ioos:station:SCCF:13:1,2011-09-05T18:00:00Z,26.5255,-82.0032,2.38,-9999.0,1111122 
SCCF RECON,ioos:station:SCCF:13:1,2011-09-05T19:00:00Z,26.5255,-82.0032,2.32,-9999.0,1111122 
SCCF RECON,ioos:station:SCCF:13:1,2011-09-05T20:00:00Z,26.5255,-82.0032,2.309,-9999.0,1111122 
SCCF RECON,ioos:station:SCCF:13:1,2011-09-05T21:00:00Z,26.5255,-82.0032,2.341,-9999.0,1111122 
SCCF RECON,ioos:station:SCCF:13:1,2011-09-05T22:00:00Z,26.5255,-82.0032,2.4,-9999.0,1111122 
SCCF RECON,ioos:station:SCCF:13:1,2011-09-05T23:00:00Z,26.5255,-82.0032,2.474,-9999.0,1111122 
SCCF RECON,ioos:station:SCCF:13:1,2011-09-06T00:00:00Z,26.5255,-82.0032,2.539,-9999.0,1111122 
SCCF RECON,ioos:station:SCCF:13:1,2011-09-06T01:00:00Z,26.5255,-82.0032,2.579,-9999.0,1111122 
SCCF RECON,ioos:station:SCCF:13:1,2011-09-06T02:00:00Z,26.5255,-82.0032,2.613,-9999.0,1111122 
SCCF RECON,ioos:station:SCCF:13:1,2011-09-06T03:00:00Z,26.5255,-82.0032,2.64,-9999.0,1111122 
SCCF RECON,ioos:station:SCCF:13:1,2011-09-06T04:00:00Z,26.5255,-82.0032,2.66,-9999.0,1111122 
SCCF RECON,ioos:station:SCCF:13:1,2011-09-06T05:00:00Z,26.5255,-82.0032,2.65,-9999.0,1111122 
SCCF RECON,ioos:station:SCCF:13:1,2011-09-06T06:00:00Z,26.5255,-82.0032,2.65,-9999.0,1111122 
SCCF RECON,ioos:station:SCCF:13:1,2011-09-06T07:00:00Z,26.5255,-82.0032,2.64,-9999.0,1111122 
SCCF RECON,ioos:station:SCCF:13:1,2011-09-06T08:00:00Z,26.5255,-82.0032,2.66,-9999.0,1111122 
SCCF RECON,ioos:station:SCCF:13:1,2011-09-06T09:00:00Z,26.5255,-82.0032,2.74,-9999.0,1111122 
SCCF RECON,ioos:station:SCCF:13:1,2011-09-06T10:00:00Z,26.5255,-82.0032,2.81,-9999.0,1111122 
SCCF RECON,ioos:station:SCCF:13:1,2011-09-06T11:00:00Z,26.5255,-82.0032,2.86,-9999.0,1111122 
SCCF RECON,ioos:station:SCCF:13:1,2011-09-06T12:00:00Z,26.5255,-82.0032,2.89,-9999.0,1111122 
SCCF RECON,ioos:station:SCCF:13:1,2011-09-06T13:00:00Z,26.5255,-82.0032,2.93,-9999.0,1111122 
SCCF RECON,ioos:station:SCCF:13:1,2011-09-06T14:00:00Z,26.5255,-82.0032,2.91,-9999.0,1111122 
SCCF RECON,ioos:station:SCCF:13:1,2011-09-06T15:00:00Z,26.5255,-82.0032,2.867,-9999.0,1111122 
SCCF RECON,ioos:station:SCCF:13:1,2011-09-06T16:00:00Z,26.5255,-82.0032,2.786,-9999.0,1111122 
SCCF RECON,ioos:station:SCCF:13:1,2011-09-06T17:00:00Z,26.5255,-82.0032,2.683,-9999.0,1111122 
SCCF RECON,ioos:station:SCCF:13:1,2011-09-06T18:00:00Z,26.5255,-82.0032,2.61,-9999.0,1111122 
SCCF RECON,ioos:station:SCCF:13:1,2011-09-06T19:00:00Z,26.5255,-82.0032,2.52,-9999.0,1111122 
SCCF RECON,ioos:station:SCCF:13:1,2011-09-06T20:00:00Z,26.5255,-82.0032,2.45,-9999.0,1111122 
SCCF RECON,ioos:station:SCCF:13:1,2011-09-06T21:00:00Z,26.5255,-82.0032,2.36,-9999.0,1111122 
SCCF RECON,ioos:station:SCCF:13:1,2011-09-06T22:00:00Z,26.5255,-82.0032,2.33,-9999.0,1111122 
SCCF RECON,ioos:station:SCCF:13:1,2011-09-06T23:00:00Z,26.5255,-82.0032,2.317,-9999.0,1111122 
SCCF RECON,ioos:station:SCCF:13:1,2011-09-07T00:00:00Z,26.5255,-82.0032,2.36,-9999.0,1111122 
SCCF RECON,ioos:station:SCCF:13:1,2011-09-07T01:00:00Z,26.5255,-82.0032,2.46,-9999.0,1111122 
SCCF RECON,ioos:station:SCCF:13:1,2011-09-07T02:00:00Z,26.5255,-82.0032,2.53,-9999.0,1111122 
SCCF RECON,ioos:station:SCCF:13:1,2011-09-07T03:00:00Z,26.5255,-82.0032,2.583,-9999.0,1111122 
SCCF RECON,ioos:station:SCCF:13:1,2011-09-07T04:00:00Z,26.5255,-82.0032,2.6,-9999.0,1111122 
SCCF RECON,ioos:station:SCCF:13:1,2011-09-07T05:00:00Z,26.5255,-82.0032,2.59,-9999.0,1111122 
SCCF RECON,ioos:station:SCCF:13:1,2011-09-07T06:00:00Z,26.5255,-82.0032,2.55,-9999.0,1111122 
SCCF RECON,ioos:station:SCCF:13:1,2011-09-07T07:00:00Z,26.5255,-82.0032,2.534,-9999.0,1111122 
SCCF RECON,ioos:station:SCCF:13:1,2011-09-07T08:00:00Z,26.5255,-82.0032,2.53,-9999.0,1111122 
SCCF RECON,ioos:station:SCCF:13:1,2011-09-07T09:00:00Z,26.5255,-82.0032,2.57,-9999.0,1111122 
SCCF RECON,ioos:station:SCCF:13:1,2011-09-07T10:00:00Z,26.5255,-82.0032,2.55,-9999.0,1111122 
SCCF RECON,ioos:station:SCCF:13:1,2011-09-07T11:00:00Z,26.5255,-82.0032,2.638,-9999.0,1111122 
SCCF RECON,ioos:station:SCCF:13:1,2011-09-07T12:00:00Z,26.5255,-82.0032,2.73,-9999.0,1111122 
SCCF RECON,ioos:station:SCCF:13:1,2011-09-07T13:00:00Z,26.5255,-82.0032,2.74,-9999.0,1111122 
SCCF RECON,ioos:station:SCCF:13:1,2011-09-07T14:00:00Z,26.5255,-82.0032,2.748,-9999.0,1111122 
SCCF RECON,ioos:station:SCCF:13:1,2011-09-07T15:00:00Z,26.5255,-82.0032,2.7,-9999.0,1111122 
SCCF RECON,ioos:station:SCCF:13:1,2011-09-07T16:00:00Z,26.5255,-82.0032,2.65,-9999.0,1111122 
SCCF RECON,ioos:station:SCCF:13:1,2011-09-07T17:00:00Z,26.5255,-82.0032,2.56,-9999.0,1111122 
SCCF RECON,ioos:station:SCCF:13:1,2011-09-07T18:00:00Z,26.5255,-82.0032,2.45,-9999.0,1111122 
SCCF RECON,ioos:station:SCCF:13:1,2011-09-07T19:00:00Z,26.5255,-82.0032,2.377,-9999.0,1111122 
SCCF RECON,ioos:station:SCCF:13:1,2011-09-07T20:00:00Z,26.5255,-82.0032,2.26,-9999.0,1111122 
SCCF RECON,ioos:station:SCCF:13:1,2011-09-07T21:00:00Z,26.5255,-82.0032,2.245,-9999.0,1111122 
SCCF RECON,ioos:station:SCCF:13:1,2011-09-07T22:00:00Z,26.5255,-82.0032,2.2,-9999.0,1111122 
SCCF RECON,ioos:station:SCCF:13:1,2011-09-07T23:00:00Z,26.5255,-82.0032,2.229,-9999.0,1111122 
SCCF RECON,ioos:station:SCCF:13:1,2011-09-08T00:00:00Z,26.5255,-82.0032,2.29,-9999.0,1111122 
SCCF RECON,ioos:station:SCCF:13:1,2011-09-08T01:00:00Z,26.5255,-82.0032,2.392,-9999.0,1111122 
SCCF RECON,ioos:station:SCCF:13:1,2011-09-08T02:00:00Z,26.5255,-82.0032,2.45,-9999.0,1111122 
SCCF RECON,ioos:station:SCCF:13:1,2011-09-08T03:00:00Z,26.5255,-82.0032,2.51,-9999.0,1111122 
SCCF RECON,ioos:station:SCCF:13:1,2011-09-08T04:00:00Z,26.5255,-82.0032,2.55,-9999.0,1111122 
SCCF RECON,ioos:station:SCCF:13:1,2011-09-08T05:00:00Z,26.5255,-82.0032,2.557,-9999.0,1111122 
SCCF RECON,ioos:station:SCCF:13:1,2011-09-08T06:00:00Z,26.5255,-82.0032,2.52,-9999.0,1111122 
SCCF RECON,ioos:station:SCCF:13:1,2011-09-08T07:00:00Z,26.5255,-82.0032,2.459,-9999.0,1111122 
SCCF RECON,ioos:station:SCCF:13:1,2011-09-08T08:00:00Z,26.5255,-82.0032,2.389,-9999.0,1111122 
SCCF RECON,ioos:station:SCCF:13:1,2011-09-08T09:00:00Z,26.5255,-82.0032,2.35,-9999.0,1111122 
SCCF RECON,ioos:station:SCCF:13:1,2011-09-08T10:00:00Z,26.5255,-82.0032,2.36,-9999.0,1111122 
SCCF RECON,ioos:station:SCCF:13:1,2011-09-08T11:00:00Z,26.5255,-82.0032,2.435,-9999.0,1111122 
SCCF RECON,ioos:station:SCCF:13:1,2011-09-08T12:00:00Z,26.5255,-82.0032,2.52,-9999.0,1111122 
SCCF RECON,ioos:station:SCCF:13:1,2011-09-08T13:00:00Z,26.5255,-82.0032,2.59,-9999.0,1111122 
SCCF RECON,ioos:station:SCCF:13:1,2011-09-08T14:00:00Z,26.5255,-82.0032,2.651,-9999.0,1111122 
SCCF RECON,ioos:station:SCCF:13:1,2011-09-08T15:00:00Z,26.5255,-82.0032,2.7,-9999.0,1111122 
SCCF RECON,ioos:station:SCCF:13:1,2011-09-08T16:00:00Z,26.5255,-82.0032,2.71,-9999.0,1111122 
SCCF RECON,ioos:station:SCCF:13:1,2011-09-08T17:00:00Z,26.5255,-82.0032,2.67,-9999.0,1111122 
SCCF RECON,ioos:station:SCCF:13:1,2011-09-08T18:00:00Z,26.5255,-82.0032,2.57,-9999.0,1111122 
SCCF RECON,ioos:station:SCCF:13:1,2011-09-08T19:00:00Z,26.5255,-82.0032,2.439,-9999.0,1111122 
SCCF RECON,ioos:station:SCCF:13:1,2011-09-08T20:00:00Z,26.5255,-82.0032,2.348,-9999.0,1111122 
SCCF RECON,ioos:station:SCCF:13:1,2011-09-08T21:00:00Z,26.5255,-82.0032,2.269,-9999.0,1111122 
SCCF RECON,ioos:station:SCCF:13:1,2011-09-08T22:00:00Z,26.5255,-82.0032,2.21,-9999.0,1111122 
SCCF RECON,ioos:station:SCCF:13:1,2011-09-08T23:00:00Z,26.5255,-82.0032,2.182,-9999.0,1111122 
SCCF RECON,ioos:station:SCCF:13:1,2011-09-09T00:00:00Z,26.5255,-82.0032,2.24,-9999.0,1111122 
SCCF RECON,ioos:station:SCCF:13:1,2011-09-09T01:00:00Z,26.5255,-82.0032,2.36,-9999.0,1111122 
SCCF RECON,ioos:station:SCCF:13:1,2011-09-09T02:00:00Z,26.5255,-82.0032,2.393,-9999.0,1111122 
SCCF RECON,ioos:station:SCCF:13:1,2011-09-09T03:00:00Z,26.5255,-82.0032,2.44,-9999.0,1111122 
SCCF RECON,ioos:station:SCCF:13:1,2011-09-09T04:00:00Z,26.5255,-82.0032,2.51,-9999.0,1111122 
SCCF RECON,ioos:station:SCCF:13:1,2011-09-09T05:00:00Z,26.5255,-82.0032,2.539,-9999.0,1111122 
SCCF RECON,ioos:station:SCCF:13:1,2011-09-09T06:00:00Z,26.5255,-82.0032,2.519,-9999.0,1111122 
SCCF RECON,ioos:station:SCCF:13:1,2011-09-09T07:00:00Z,26.5255,-82.0032,2.43,-9999.0,1111122 
SCCF RECON,ioos:station:SCCF:13:1,2011-09-09T08:00:00Z,26.5255,-82.0032,2.33,-9999.0,1111122 
SCCF RECON,ioos:station:SCCF:13:1,2011-09-09T09:00:00Z,26.5255,-82.0032,2.26,-9999.0,1111122 
SCCF RECON,ioos:station:SCCF:13:1,2011-09-09T10:00:00Z,26.5255,-82.0032,2.22,-9999.0,1111122 
SCCF RECON,ioos:station:SCCF:13:1,2011-09-09T11:00:00Z,26.5255,-82.0032,2.24,-9999.0,1111122 
SCCF RECON,ioos:station:SCCF:13:1,2011-09-09T12:00:00Z,26.5255,-82.0032,2.36,-9999.0,1111122 
SCCF RECON,ioos:station:SCCF:13:1,2011-09-09T13:00:00Z,26.5255,-82.0032,2.468,-9999.0,1111122 
SCCF RECON,ioos:station:SCCF:13:1,2011-09-09T14:00:00Z,26.5255,-82.0032,2.53,-9999.0,1111122 
SCCF RECON,ioos:station:SCCF:13:1,2011-09-09T15:00:00Z,26.5255,-82.0032,2.599,-9999.0,1111122 
SCCF RECON,ioos:station:SCCF:13:1,2011-09-09T16:00:00Z,26.5255,-82.0032,2.65,-9999.0,1111122 
SCCF RECON,ioos:station:SCCF:13:1,2011-09-09T17:00:00Z,26.5255,-82.0032,2.65,-9999.0,1111122 
SCCF RECON,ioos:station:SCCF:13:1,2011-09-09T18:00:00Z,26.5255,-82.0032,2.59,-9999.0,1111122 
SCCF RECON,ioos:station:SCCF:13:1,2011-09-09T19:00:00Z,26.5255,-82.0032,2.478,-9999.0,1111122 
SCCF RECON,ioos:station:SCCF:13:1,2011-09-09T20:00:00Z,26.5255,-82.0032,2.36,-9999.0,1111122 
SCCF RECON,ioos:station:SCCF:13:1,2011-09-09T21:00:00Z,26.5255,-82.0032,2.28,-9999.0,1111122 
SCCF RECON,ioos:station:SCCF:13:1,2011-09-09T22:00:00Z,26.5255,-82.0032,2.212,-9999.0,1111122 
SCCF RECON,ioos:station:SCCF:13:1,2011-09-09T23:00:00Z,26.5255,-82.0032,2.16,-9999.0,1111122 
SCCF RECON,ioos:station:SCCF:13:1,2011-09-10T00:00:00Z,26.5255,-82.0032,2.14,-9999.0,1111122 
SCCF RECON,ioos:station:SCCF:13:1,2011-09-10T01:00:00Z,26.5255,-82.0032,2.16,-9999.0,1111122 
SCCF RECON,ioos:station:SCCF:13:1,2011-09-10T02:00:00Z,26.5255,-82.0032,2.29,-9999.0,1111122 
SCCF RECON,ioos:station:SCCF:13:1,2011-09-10T03:00:00Z,26.5255,-82.0032,2.41,-9999.0,1111122 
SCCF RECON,ioos:station:SCCF:13:1,2011-09-10T04:00:00Z,26.5255,-82.0032,2.47,-9999.0,1111122 
SCCF RECON,ioos:station:SCCF:13:1,2011-09-10T05:00:00Z,26.5255,-82.0032,2.51,-9999.0,1111122 
SCCF RECON,ioos:station:SCCF:13:1,2011-09-10T06:00:00Z,26.5255,-82.0032,2.5,-9999.0,1111122 
SCCF RECON,ioos:station:SCCF:13:1,2011-09-10T07:00:00Z,26.5255,-82.0032,2.43,-9999.0,1111122 
SCCF RECON,ioos:station:SCCF:13:1,2011-09-10T08:00:00Z,26.5255,-82.0032,2.321,-9999.0,1111122 
SCCF RECON,ioos:station:SCCF:13:1,2011-09-10T09:00:00Z,26.5255,-82.0032,2.24,-9999.0,1111122 
SCCF RECON,ioos:station:SCCF:13:1,2011-09-10T10:00:00Z,26.5255,-82.0032,2.19,-9999.0,1111122 
SCCF RECON,ioos:station:SCCF:13:1,2011-09-10T11:00:00Z,26.5255,-82.0032,2.18,-9999.0,1111122 
SCCF RECON,ioos:station:SCCF:13:1,2011-09-10T12:00:00Z,26.5255,-82.0032,2.26,-9999.0,1111122 
SCCF RECON,ioos:station:SCCF:13:1,2011-09-10T13:00:00Z,26.5255,-82.0032,2.4,-9999.0,1111122 
SCCF RECON,ioos:station:SCCF:13:1,2011-09-10T14:00:00Z,26.5255,-82.0032,2.51,-9999.0,1111122 
SCCF RECON,ioos:station:SCCF:13:1,2011-09-10T15:00:00Z,26.5255,-82.0032,2.58,-9999.0,1111122 
SCCF RECON,ioos:station:SCCF:13:1,2011-09-10T16:00:00Z,26.5255,-82.0032,2.64,-9999.0,1111122 
SCCF RECON,ioos:station:SCCF:13:1,2011-09-10T17:00:00Z,26.5255,-82.0032,2.67,-9999.0,1111122 
SCCF RECON,ioos:station:SCCF:13:1,2011-09-10T18:00:00Z,26.5255,-82.0032,2.65,-9999.0,1111122 
SCCF RECON,ioos:station:SCCF:13:1,2011-09-10T19:00:00Z,26.5255,-82.0032,2.56,-9999.0,1111122 
SCCF RECON,ioos:station:SCCF:13:1,2011-09-10T20:00:00Z,26.5255,-82.0032,2.449,-9999.0,1111122 
SCCF RECON,ioos:station:SCCF:13:1,2011-09-10T21:00:00Z,26.5255,-82.0032,2.33,-9999.0,1111122 
SCCF RECON,ioos:station:SCCF:13:1,2011-09-10T22:00:00Z,26.5255,-82.0032,2.25,-9999.0,1111122 
SCCF RECON,ioos:station:SCCF:13:1,2011-09-10T23:00:00Z,26.5255,-82.0032,2.175,-9999.0,1111122 
SCCF RECON,ioos:station:SCCF:13:1,2011-09-11T00:00:00Z,26.5255,-82.0032,2.13,-9999.0,1111122 
SCCF RECON,ioos:station:SCCF:13:1,2011-09-11T01:00:00Z,26.5255,-82.0032,2.2,-9999.0,1111122 
SCCF RECON,ioos:station:SCCF:13:1,2011-09-11T02:00:00Z,26.5255,-82.0032,2.34,-9999.0,1111122 
SCCF RECON,ioos:station:SCCF:13:1,2011-09-11T03:00:00Z,26.5255,-82.0032,2.43,-9999.0,1111122 
SCCF RECON,ioos:station:SCCF:13:1,2011-09-11T04:00:00Z,26.5255,-82.0032,2.47,-9999.0,1111122 
SCCF RECON,ioos:station:SCCF:13:1,2011-09-11T05:00:00Z,26.5255,-82.0032,2.52,-9999.0,1111122 
SCCF RECON,ioos:station:SCCF:13:1,2011-09-11T06:00:00Z,26.5255,-82.0032,2.55,-9999.0,1111122 
SCCF RECON,ioos:station:SCCF:13:1,2011-09-11T07:00:00Z,26.5255,-82.0032,2.51,-9999.0,1111122 
SCCF RECON,ioos:station:SCCF:13:1,2011-09-11T08:00:00Z,26.5255,-82.0032,2.41,-9999.0,1111122 
SCCF RECON,ioos:station:SCCF:13:1,2011-09-11T09:00:00Z,26.5255,-82.0032,2.31,-9999.0,1111122 
SCCF RECON,ioos:station:SCCF:13:1,2011-09-11T10:00:00Z,26.5255,-82.0032,2.25,-9999.0,1111122 
SCCF RECON,ioos:station:SCCF:13:1,2011-09-11T11:00:00Z,26.5255,-82.0032,2.19,-9999.0,1111122 
SCCF RECON,ioos:station:SCCF:13:1,2011-09-11T12:00:00Z,26.5255,-82.0032,2.17,-9999.0,1111122 
SCCF RECON,ioos:station:SCCF:13:1,2011-09-11T13:00:00Z,26.5255,-82.0032,2.26,-9999.0,1111122 
SCCF RECON,ioos:station:SCCF:13:1,2011-09-11T14:00:00Z,26.5255,-82.0032,2.42,-9999.0,1111122 